DW7092 Weather Reports


time (UTC)temp
C
wind
direction
speed
KPH
gust
KPH
rain 1hr
cm
rain 24hr
cm
rain mn
cm
humidity
%
barometer
mb
20260505035544 8 226 0.0 0.0 0.08 0.18 0.18 82 1013.6
20260505035023 8 226 0.0 0.0 0.08 0.18 0.18 82 1013.5
20260505034525 8 226 0.0 0.0 0.08 0.18 0.18 82 1013.5
20260505034026 8 226 0.0 0.0 0.08 0.18 0.18 81 1013.6
20260505033527 8 226 0.0 0.0 0.10 0.18 0.18 81 1013.6
20260505033028 8 226 0.0 0.0 0.10 0.18 0.18 81 1013.5
20260505032529 8 226 0.0 0.0 0.10 0.18 0.18 80 1013.5
20260505032027 8 226 0.0 0.0 0.10 0.18 0.18 79 1013.4
20260505031526 8 226 0.0 0.0 0.08 0.15 0.15 79 1013.3
20260505031027 8 226 0.0 0.0 0.05 0.13 0.13 78 1013.3
20260505030529 9 226 0.0 0.0 0.05 0.13 0.13 77 1013.4
20260505030031 9 226 0.0 4.8 0.03 0.10 0.10 77 1013.2
20260505025529 9 226 0.0 6.4 0.03 0.10 0.10 76 1013.2
20260505025030 9 225 1.6 6.4 0.03 0.10 0.10 75 1013.0
20260505024556 9 225 1.6 8.0 0.03 0.10 0.10 74 1013.0
20260505024034 9 208 1.6 8.0 0.03 0.10 0.10 73 1012.9
20260505023536 9 235 0.0 4.8 0.00 0.08 0.08 73 1012.9
20260505023035 9 262 0.0 0.0 0.00 0.08 0.08 72 1012.8
20260505022606 9 282 0.0 0.0 0.00 0.08 0.08 72 1012.9
20260505022026 9 282 0.0 0.0 0.00 0.08 0.08 73 1012.8
20260505021527 9 282 0.0 0.0 0.00 0.08 0.08 73 1012.7
20260505021041 9 282 0.0 0.0 0.00 0.08 0.08 73 1012.8
20260505020536 9 282 0.0 3.2 0.00 0.08 0.08 73 1012.8
20260505020038 9 282 0.0 3.2 0.00 0.08 0.08 73 1012.8
20260505015541 9 282 0.0 0.0 0.00 0.08 0.08 72 1012.9
20260505015043 9 282 0.0 1.6 0.00 0.08 0.08 71 1012.7
20260505014524 9 282 0.0 3.2 0.00 0.08 0.08 71 1012.6
20260505014023 10 278 0.0 4.8 0.00 0.08 0.08 70 1012.6
20260505013553 10 275 0.0 4.8 0.00 0.08 0.08 69 1012.6
20260505013032 10 300 0.0 4.8 0.00 0.08 0.08 69 1012.5
20260505012531 10 307 0.0 3.2 0.00 0.08 0.08 69 1012.5
20260505012031 10 316 0.0 6.4 0.00 0.08 0.08 69 1012.6
20260505011530 10 285 0.0 6.4 0.00 0.08 0.08 69 1012.6
20260505011102 10 286 0.0 4.8 0.00 0.08 0.08 69 1012.6
20260505010544 10 289 0.0 6.4 0.00 0.08 0.08 67 1012.7
20260505010047 10 263 0.0 9.7 0.00 0.08 0.08 66 1012.7
20260505005529 11 290 1.6 9.7 0.00 0.08 0.08 64 1012.7
20260505005030 11 282 0.0 8.0 0.00 0.08 0.08 64 1012.6
20260505004529 11 289 0.0 11.3 0.00 0.08 0.08 62 1012.6
20260505004029 12 291 3.2 11.3 0.00 0.08 0.08 60 1012.6
20260505003530 12 288 1.6 9.7 0.00 0.08 0.08 59 1012.6
20260505003039 12 306 0.0 0.0 0.00 0.08 0.08 59 1012.5
20260505002541 12 306 0.0 0.0 0.00 0.08 0.08 59 1012.3
20260505002023 12 306 0.0 4.8 0.00 0.08 0.08 57 1012.2
20260505001523 12 306 0.0 6.4 0.00 0.08 0.08 58 1012.2
20260505001023 12 336 0.0 6.4 0.00 0.08 0.08 58 1012.2
20260505000528 13 253 0.0 0.0 0.00 0.08 0.08 61 1012.2
20260505000030 13 253 0.0 0.0 0.03 0.08 0.08 61 1012.1
20260504235534 13 253 0.0 0.0 0.05 0.08 0.08 61 1012.2
20260504235035 13 253 0.0 0.0 0.05 0.08 0.08 61 1012.1
20260504234534 13 253 0.0 0.0 0.05 0.08 0.08 60 1011.9
20260504234035 13 253 0.0 0.0 0.05 0.08 0.08 64 1011.8
20260504233535 12 253 0.0 0.0 0.05 0.08 0.08 64 1011.9
20260504233109 12 238 0.0 0.0 0.05 0.08 0.08 67 1011.8
20260504232549 12 238 0.0 0.0 0.05 0.08 0.08 68 1011.9
20260504232030 12 238 0.0 0.0 0.05 0.08 0.08 68 1012.1
20260504231531 11 237 0.0 0.0 0.05 0.08 0.08 66 1012.1
20260504231037 11 237 0.0 3.2 0.05 0.08 0.08 66 1012.3
20260504230536 11 237 0.0 4.8 0.05 0.08 0.08 63 1012.3
20260504230033 12 268 0.0 8.0 0.03 0.05 0.05 59 1012.2
20260504225533 13 282 3.2 8.0 0.00 0.03 0.03 53 1012.2
20260504225035 14 278 0.0 8.0 0.00 0.03 0.03 48 1011.9
20260504224532 14 284 0.0 3.2 0.00 0.03 0.03 42 1011.7
20260504224105 15 284 0.0 3.2 0.00 0.03 0.03 41 1011.6
20260504223524 15 316 0.0 1.6 0.00 0.03 0.03 41 1011.4
20260504223034 15 316 0.0 4.8 0.00 0.03 0.03 41 1011.3
20260504222535 15 332 0.0 4.8 0.00 0.03 0.03 41 1011.1
20260504222037 15 339 0.0 3.2 0.00 0.03 0.03 42 1011.2
20260504221546 15 344 0.0 6.4 0.00 0.03 0.03 42 1011.1
20260504221042 15 345 0.0 6.4 0.00 0.03 0.03 43 1010.9
20260504220523 15 336 0.0 4.8 0.03 0.03 0.03 44 1010.7
20260504220023 15 12 0.0 11.3 0.03 0.03 0.03 45 1010.5
20260504215524 15 34 1.6 11.3 0.03 0.03 0.03 46 1010.4
20260504215027 15 33 1.6 9.7 0.03 0.03 0.03 48 1010.6
20260504214528 15 348 0.0 9.7 0.03 0.03 0.03 50 1010.8
20260504214026 15 16 1.6 6.4 0.03 0.03 0.03 49 1011.0
20260504213527 15 24 1.6 4.8 0.03 0.03 0.03 51 1011.1
20260504213036 14 36 0.0 1.6 0.03 0.03 0.03 55 1011.4
20260504212536 13 39 0.0 4.8 0.03 0.03 0.03 54 1011.9
20260504212038 13 66 0.0 4.8 0.03 0.03 0.03 50 1012.1
20260504211539 13 327 0.0 9.7 0.03 0.03 0.03 48 1012.2
20260504211039 13 255 0.0 9.7 0.03 0.03 0.03 45 1012.4
20260504210535 14 303 0.0 11.3 0.00 0.00 0.00 45 1012.4
20260504210038 15 334 1.6 8.0 0.00 0.00 0.00 44 1012.2
20260504205538 15 316 0.0 8.0 0.00 0.00 0.00 42 1012.0
20260504205040 15 336 1.6 14.5 0.00 0.00 0.00 39 1011.9
20260504204543 15 327 0.0 14.5 0.00 0.00 0.00 38 1011.7
20260504204024 15 305 0.0 16.1 0.00 0.00 0.00 39 1011.4
20260504203526 16 302 0.0 16.1 0.00 0.00 0.00 39 1011.3
20260504203040 16 326 3.2 17.7 0.00 0.00 0.00 36 1010.9
20260504202541 17 343 4.8 25.7 0.00 0.00 0.00 31 1010.6
20260504202044 17 11 9.7 25.7 0.00 0.00 0.00 30 1010.4
20260504201546 17 310 3.2 20.9 0.00 0.00 0.00 28 1010.4
20260504201048 18 3 4.8 20.9 0.00 0.00 0.00 26 1010.5
20260504200531 20 329 1.6 14.5 0.00 0.00 0.00 22 1010.6
20260504200033 20 349 1.6 6.4 0.00 0.00 0.00 22 1010.3
20260504195526 21 338 0.0 6.4 0.00 0.00 0.00 23 1010.4
20260504195028 21 262 0.0 16.1 0.00 0.00 0.00 23 1010.4
20260504194539 21 296 3.2 16.1 0.00 0.00 0.00 23 1010.3
20260504194040 22 297 1.6 12.9 0.00 0.00 0.00 24 1010.3
20260504193543 22 314 1.6 14.5 0.00 0.00 0.00 24 1010.3
20260504193044 22 305 3.2 17.7 0.00 0.00 0.00 21 1010.3
20260504192546 22 278 1.6 16.1 0.00 0.00 0.00 22 1010.3
20260504192047 22 289 3.2 17.7 0.00 0.00 0.00 23 1010.3
20260504191526 22 272 0.0 11.3 0.00 0.00 0.00 22 1010.2
20260504191025 21 249 1.6 16.1 0.00 0.00 0.00 22 1010.3
20260504190525 21 280 3.2 22.5 0.00 0.00 0.00 23 1010.3
20260504190027 21 263 3.2 22.5 0.00 0.00 0.00 22 1010.4
20260504185531 21 244 4.8 17.7 0.00 0.00 0.00 22 1010.4
20260504185033 21 239 4.8 17.7 0.00 0.00 0.00 23 1010.4
20260504184531 21 217 8.0 17.7 0.00 0.00 0.00 23 1010.4
20260504184031 21 230 3.2 24.1 0.00 0.00 0.00 23 1010.5
20260504183602 21 239 6.4 24.1 0.00 0.00 0.00 24 1010.6
20260504183023 21 282 3.2 22.5 0.00 0.00 0.00 24 1010.7
20260504182544 20 270 9.7 22.5 0.00 0.00 0.00 24 1010.7
20260504182044 20 211 4.8 24.1 0.00 0.00 0.00 25 1010.9
20260504181544 20 286 6.4 20.9 0.00 0.00 0.00 24 1010.9
20260504181043 20 247 6.4 19.3 0.00 0.00 0.00 25 1011.0
20260504180543 20 247 3.2 17.7 0.00 0.00 0.00 25 1011.0
20260504180044 19 223 6.4 17.7 0.00 0.00 0.00 26 1011.0
20260504175550 19 286 4.8 17.7 0.00 0.00 0.00 27 1011.2
20260504175029 18 274 3.2 16.1 0.00 0.00 0.00 27 1011.2
20260504174529 18 222 0.0 6.4 0.00 0.00 0.00 28 1011.4
20260504174028 18 274 1.6 6.4 0.00 0.00 0.00 27 1011.4
20260504173526 18 268 1.6 6.4 0.00 0.00 0.00 29 1011.5
20260504173023 17 228 1.6 4.8 0.00 0.00 0.00 29 1011.6
20260504172524 17 243 0.0 12.9 0.00 0.00 0.00 29 1011.6
20260504172024 17 227 6.4 12.9 0.00 0.00 0.00 29 1011.5
20260504171526 17 220 1.6 8.0 0.00 0.00 0.00 30 1011.5
20260504171027 17 202 1.6 11.3 0.00 0.00 0.00 30 1011.5
20260504170528 17 219 1.6 11.3 0.00 0.00 0.00 30 1011.5
20260504151044 11 136 0.0 0.0 0.00 0.00 0.00 47 1011.7
20260504150543 11 104 0.0 0.0 0.00 0.00 0.00 48 1011.7
20260504141031 7 354 0.0 0.0 0.00 0.00 0.00 56 1011.8
20260504140601 7 354 0.0 0.0 0.00 0.00 0.00 56 1011.8
20260504130543 2 354 0.0 0.0 0.00 0.00 0.00 63 1011.9
20260504110548 2 354 0.0 0.0 0.00 0.00 0.00 58 1012.1
20260504100603 3 354 0.0 0.0 0.00 0.00 0.00 54 1012.3
20260504081526 5 354 0.0 0.0 0.00 0.00 0.00 52 1012.8
20260504081024 5 354 0.0 0.0 0.00 0.00 0.00 52 1012.9
20260504080524 5 354 0.0 0.0 0.00 0.00 0.00 51 1013.0
20260504050559 12 327 0.0 3.2 0.00 0.00 0.00 35 1013.5
20260504045522 12 280 0.0 4.8 0.00 0.00 0.00 34 1013.6
20260504045026 12 313 0.0 0.0 0.00 0.00 0.00 32 1013.5
20260504044529 13 308 0.0 6.4 0.00 0.00 0.00 30 1013.5
20260504044031 13 305 0.0 8.0 0.00 0.00 0.00 29 1013.4
20260504043529 13 297 1.6 8.0 0.00 0.00 0.00 31 1013.4
20260504043028 13 349 0.0 1.6 0.00 0.00 0.00 31 1013.4
20260504042527 13 313 0.0 6.4 0.00 0.00 0.00 30 1013.4
20260504042028 14 324 0.0 11.3 0.00 0.00 0.00 28 1013.3
20260504041528 15 332 0.0 11.3 0.00 0.00 0.00 26 1013.3
20260504041023 15 273 1.6 8.0 0.00 0.00 0.00 27 1013.1
20260504040526 15 266 0.0 4.8 0.00 0.00 0.00 27 1013.1
20260504040100 14 263 0.0 4.8 0.00 0.00 0.00 28 1013.2